• Join FlightAware (Why Join?)
  • Login
  • US Flag 
10:57AM EST


 

Airport Tracker/Info


-or-


 

Live Flight TrackerFlight Track Log ✈ FLG3861 ✈ 19-Nov-2013 ✈ KDTW - KBGM

Flight Track Log - Related Links

Times and Time Zones

All times are in EST time to prevent confusion due to time zone crossing. See the FLG3861 flight status page for this flight to view local times or setup timezone preferences in your user account.

Time Position Orientation Groundspeed Altitude Reporting Facility
EST Latitude Longitude Course Direction KTS MPH feet Rate Location/Type
09:56PM 42.2028 -83.3553 185° South 154 177 1,400  Level Cleveland Center
09:57PM 42.1794 -83.3578 185° South 163 188 2,600 1,957 Climbing Cleveland Center
09:58PM 42.1350 -83.3572 179° South 191 220 4,400 1,890 Climbing Cleveland Center
09:58PM 42.1108 -83.3536 174° South 245 282 4,900 2,516 Climbing Cleveland Center
09:59PM 42.0825 -83.3017 126° Southeast 251 289 7,000 3,134 Climbing Cleveland Center
09:59PM 42.0694 -83.2636 115° Southeast 258 297 8,400 3,148 Climbing Cleveland Center
10:00PM 42.0606 -83.1914 99° East 276 318 10,200 2,094 Climbing Cleveland Center
10:01PM 42.1044 -83.0922 59° Northeast 316 364 12,100 2,049 Climbing Cleveland Center
10:02PM 42.1564 -82.9922 55° Northeast 328 377 14,400 2,000 Climbing Cleveland Center
10:03PM 42.2122 -82.8856 55° Northeast 349 402 16,200 1,770 Climbing Cleveland Center
10:04PM 42.2708 -82.7725 55° Northeast 367 422 18,000 1,366 Climbing Cleveland Center
10:05PM 42.3189 -82.6456 63° Northeast 385 443 19,000 488 Climbing Cleveland Center
10:06PM 42.3161 -82.4936 91° East 402 463 19,000 197 Level Cleveland Center
10:07PM 42.3122 -82.3414 92° East 406 467 19,400 829 Climbing Cleveland Center
10:08PM 42.3078 -82.1511 92° East 421 484 20,700 1,073 Climbing Cleveland Center
10:09PM 42.3028 -81.9953 92° East 433 498 21,600 984 Climbing Cleveland Center
10:10PM 42.2986 -81.8242 92° East 446 513 22,700 1,024 Climbing Cleveland Center
10:11PM 42.2928 -81.6553 93° East 447 514 23,700 976 Climbing Cleveland Center
10:12PM 42.2883 -81.4814 92° East 457 526 24,700 984 Climbing Cleveland Center
10:13PM 42.2817 -81.3100 93° East 454 522 25,700 976 Climbing Cleveland Center
10:14PM 42.2758 -81.1367 93° East 457 526 26,700 1,024 Climbing Cleveland Center
10:15PM 42.2697 -80.9636 93° East 457 526 27,800 836 Climbing Cleveland Center
10:16PM 42.2631 -80.7894 93° East 460 529 28,400 585 Climbing Cleveland Center
10:17PM 42.2597 -80.6128 91° East 464 534 29,000 293 Climbing Cleveland Center
10:18PM 42.2614 -80.4306 89° East 477 549 29,000  Level Cleveland Center
10:19PM 42.2636 -80.2422 89° East 494 568 29,000  Level Cleveland Center
10:20PM 42.2642 -80.0175 90° East 507 583 29,000  Level Cleveland Center
10:21PM 42.2647 -79.8400 90° East 507 583 29,000  Level Cleveland Center
10:22PM 42.2642 -79.6475 90° East 515 593 29,000 -98 Level Cleveland Center
10:23PM 42.2642 -79.4550 90° East 516 594 28,800 -344 Descending Cleveland Center
10:24PM 42.2633 -79.2583 90° East 524 603 28,300 -393 Descending Cleveland Center
10:25PM 42.2628 -79.0631 90° East 522 601 28,000 -393 Descending Cleveland Center
10:26PM 42.2619 -78.8469 90° East 523 602 27,500 -492 Descending Cleveland Center
10:27PM 42.2608 -78.6539 90° East 519 597 27,000 -244 Descending Cleveland Center
10:28PM 42.2594 -78.4586 90° East 522 601 27,000  Level Cleveland Center
10:29PM 42.2572 -78.2639 91° East 522 601 27,000  Level Cleveland Center
10:30PM 42.2544 -78.0703 91° East 522 601 27,000 -246 Level Cleveland Center
10:31PM 42.2506 -77.8372 91° East 523 602 26,500 -738 Descending Cleveland Center
10:33PM 42.2483 -77.6483 91° East 512 589 25,500 -984 Descending Cleveland Center
10:34PM 42.2439 -77.4592 92° East 511 588 24,500 -1,415 Descending Cleveland Center
10:35PM 42.2414 -77.2689 91° East 513 590 22,600 -2,049 Descending Cleveland Center
10:36PM 42.2367 -77.0939 92° East 477 549 20,300 -2,262 Descending Cleveland Center
10:37PM 42.2325 -76.9353 92° East 428 493 18,000 -2,066 Descending Cleveland Center
10:38PM 42.2294 -76.7883 92° East 399 459 16,100 -2,311 Descending Cleveland Center
10:39PM 42.2264 -76.6269 91° East 362 417 13,300 -2,508 Descending Cleveland Center
10:40PM 42.2217 -76.5100 93° East 319 367 11,000 -2,066 Descending Cleveland Center
10:41PM 42.2189 -76.4003 92° East 297 342 9,100 -1,574 Descending Cleveland Center
10:42PM 42.2161 -76.3033 92° East 280 322 7,800 -1,328 Descending Cleveland Center
10:43PM 42.2136 -76.2014 92° East 273 314 6,400 -1,377 Descending Cleveland Center
10:44PM 42.2042 -76.1119 98° East 255 293 5,000 -1,171 Descending Cleveland Center
10:45PM 42.1447 -76.0544 144° Southeast 255 293 4,000 -662 Descending Cleveland Center
10:46PM 42.0836 -75.9850 140° Southeast 220 253 3,500 -400 Descending New York Center
10:47PM 42.1050 -75.9281 63° Northeast 143 165 3,100 -400 Descending New York Center
10:48PM 42.1364 -75.9222 North 95 109 2,700 -353 Descending New York Center
10:49PM 42.1644 -75.9467 327° Northwest 79 91 2,400 -350 Descending New York Center
10:50PM 42.1867 -75.9653 328° Northwest 87 100 2,000 -400 Descending New York Center